User: anonymous   Login
Location: Unspecified
(0.0000°N, 0.0000°E)
Time: 19:04:26
(UTC+00:00)
Language:

Uosat F - Orbit

View from above orbital plane
View from above orbital plane
View from above satellite
View from above satellite

Ground track
Ground track

The orbit data is extracted from the following two-line orbital elements,

1 21575U 91050B   19340.84186410 +.00000003 +00000-0 +15272-4 0  9998
2 21575 098.6633 024.6193 0008244 126.0202 234.1751 14.40900868491066
Epoch (UTC): 06 December 2019 20:12:17
Eccentricity: 0.0008244
inclination: 98.6633°
perigee height: 749 km
apogee height: 761 km
right ascension of ascending node: 24.6193°
argument of perigee: 126.0202°
revolutions per day: 14.40900868
mean anomaly at epoch: 234.1751°
orbit number at epoch: 49106

The dashed part of the orbit path shows where the satellite is in the earth's shadow,  

DLR